sat.trackr.live / text

‹ back to catalog

STARLINK-4201

NORAD 52856 · 2022-062AC

PAYLOAD ACTIVE UNKNOWN

§ Identity

Operator
Country
US
Launch date
2022-06-17
Launch site
AFETR
Launch vehicle
Mass (kg)
RCS (m²)

Purposes: comms

External: N2YO · Heavens-Above · Gunter

§ Orbital elements

Epoch: 2026-05-25T03:18:28.334880Z

Period
95.44 min
Inclination
53.2148°
Eccentricity
0.0001545
Mean motion
15.08847848 rev/d
Perigee alt
538.7 km
Apogee alt
540.8 km
Semi-major
6,917.9 km
B*
-1.3339e-4
RAAN
40.9771°
Arg perigee
89.3569°
Mean anomaly
270.7601°
Rev number
21,746

§ Raw data

STARLINK-42011 52856U 22062AC  26145.13782795 -.00002411  00000+0 -13339-3 0  99992 52856  53.2148  40.9771 0001545  89.3569 270.7601 15.08847848217460

JSON: /api/v1/satellites/52856 · /tle

For live sub-satellite position, see the globe view (requires WebGL).

§ Visibility from observer

Set your observer location to see the next 7 days of passes ≥ 10°. The values pass through the URL so the page stays shareable.

No JS? Fill the form by hand. The geolocation button needs JavaScript.